• Em Portugal
  • Lista de países
  • Para 7 dias
  • Temperatura da água
  • Mapas de satélite
  • Mapa do tempo
  • Widgets de tempo
  • user-avatar
    Iniciar Sessão

    Previsão horária em Batina

    Hoje, 23 Outubro, Terça-feira

    Tempo Temperatura Precipitação Vento Pressão Humidade
    00:00 +12°C° 0 mm 5 m/s 672 mmHg 76%
    01:00 +12°C° 0 mm 5 m/s 672 mmHg 77%
    02:00 +10°C° 0 mm 5 m/s 672 mmHg 78%
    03:00 +10°C° 0 mm 5 m/s 672 mmHg 79%
    04:00 +11°C° 0 mm 4 m/s 672 mmHg 80%
    05:00 +10°C° 0 mm 4 m/s 672 mmHg 81%
    06:00 +11°C° 0 mm 3 m/s 672 mmHg 81%
    07:00 +11°C° 0 mm 4 m/s 673 mmHg 75%
    08:00 +12°C° 0 mm 4 m/s 673 mmHg 70%
    09:00 +13°C° 0 mm 5 m/s 674 mmHg 64%
    10:00 +14°C° 0 mm 5 m/s 674 mmHg 61%
    11:00 +15°C° 0 mm 5 m/s 675 mmHg 58%
    12:00 +15°C° 0 mm 6 m/s 675 mmHg 55%
    13:00 +15°C° 0 mm 6 m/s 674 mmHg 54%
    14:00 +15°C° 0 mm 5 m/s 674 mmHg 53%
    15:00 +15°C° 0 mm 5 m/s 674 mmHg 53%
    16:00 +14°C° 0 mm 5 m/s 674 mmHg 57%
    17:00 +14°C° 0 mm 4 m/s 674 mmHg 61%
    18:00 +13°C° 0 mm 3 m/s 674 mmHg 65%
    19:00 +12°C° 0 mm 3 m/s 674 mmHg 67%
    20:00 +12°C° 0 mm 3 m/s 674 mmHg 70%
    21:00 +13°C° 0 mm 2 m/s 674 mmHg 73%
    22:00 +12°C° 0 mm 2 m/s 674 mmHg 75%
    23:00 +12°C° 0 mm 2 m/s 674 mmHg 76%

    Amanhã, 24 Outubro, Quarta-feira

    Tempo Temperatura Precipitação Vento Pressão Humidade
    00:00 +10°C° 0 mm 2 m/s 674 mmHg 78%
    01:00 +10°C° 0 mm 2 m/s 673 mmHg 79%
    02:00 +10°C° 0 mm 2 m/s 673 mmHg 79%
    03:00 +10°C° 0 mm 2 m/s 673 mmHg 79%
    04:00 +10°C° 0 mm 2 m/s 673 mmHg 80%
    05:00 +9°C° 0 mm 2 m/s 673 mmHg 81%
    06:00 +9°C° 0 mm 2 m/s 673 mmHg 81%
    07:00 +10°C° 0 mm 2 m/s 673 mmHg 76%
    08:00 +12°C° 0 mm 3 m/s 674 mmHg 71%
    09:00 +13°C° 0 mm 3 m/s 674 mmHg 66%
    10:00 +13°C° 0 mm 3 m/s 674 mmHg 62%
    11:00 +14°C° 0 mm 3 m/s 674 mmHg 58%
    12:00 +16°C° 0 mm 3 m/s 674 mmHg 54%
    13:00 +16°C° 0 mm 3 m/s 674 mmHg 53%
    14:00 +16°C° 0 mm 3 m/s 674 mmHg 51%
    15:00 +17°C° 0 mm 3 m/s 674 mmHg 50%
    16:00 +16°C° 0 mm 3 m/s 673 mmHg 54%
    17:00 +15°C° 0 mm 2 m/s 673 mmHg 57%
    18:00 +14°C° 0 mm 2 m/s 673 mmHg 61%
    19:00 +14°C° 0 mm 2 m/s 673 mmHg 65%
    20:00 +13°C° 0 mm 1 m/s 673 mmHg 69%
    21:00 +13°C° 0 mm 1 m/s 674 mmHg 73%
    22:00 +12°C° 0 mm 1 m/s 673 mmHg 75%
    23:00 +12°C° 0 mm 1 m/s 673 mmHg 77%

    Depois de amanhã, 25 Outubro, Quinta-feira

    Tempo Temperatura Precipitação Vento Pressão Humidade
    00:00 +11°C° 0 mm 1 m/s 673 mmHg 79%
    01:00 +10°C° 0 mm 0 m/s 673 mmHg 79%
    02:00 +10°C° 0 mm 0 m/s 673 mmHg 80%
    03:00 +9°C° 0 mm 0 m/s 672 mmHg 80%
    04:00 +9°C° 0 mm 0 m/s 672 mmHg 80%
    05:00 +9°C° 0 mm 0 m/s 672 mmHg 80%
    06:00 +9°C° 0 mm 0 m/s 672 mmHg 79%
    07:00 +11°C° 0 mm 0 m/s 673 mmHg 70%
    08:00 +12°C° 0 mm 0 m/s 674 mmHg 60%
    09:00 +14°C° 0 mm 0 m/s 675 mmHg 51%
    10:00 +16°C° 0 mm 1 m/s 675 mmHg 47%
    11:00 +18°C° 0 mm 1 m/s 675 mmHg 42%
    12:00 +19°C° 0 mm 1 m/s 675 mmHg 38%
    13:00 +19°C° 0 mm 1 m/s 675 mmHg 37%
    14:00 +20°C° 0 mm 1 m/s 674 mmHg 36%
    15:00 +19°C° 0 mm 2 m/s 674 mmHg 36%
    16:00 +18°C° 0 mm 2 m/s 674 mmHg 40%
    17:00 +18°C° 0 mm 1 m/s 674 mmHg 45%
    18:00 +16°C° 0 mm 1 m/s 673 mmHg 49%
    19:00 +15°C° 0 mm 1 m/s 674 mmHg 52%
    20:00 +15°C° 0 mm 2 m/s 674 mmHg 54%
    21:00 +15°C° 0 mm 2 m/s 674 mmHg 57%
    22:00 +14°C° 0 mm 2 m/s 674 mmHg 59%
    23:00 +14°C° 0 mm 2 m/s 673 mmHg 61%

    26 Outubro, Sexta-feira

    Tempo Temperatura Precipitação Vento Pressão Humidade
    00:00 +13°C° 0 mm 2 m/s 673 mmHg 62%
    01:00 +13°C° 0 mm 2 m/s 673 mmHg 63%
    02:00 +13°C° 0 mm 2 m/s 672 mmHg 64%
    03:00 +12°C° 0 mm 2 m/s 672 mmHg 65%
    04:00 +12°C° 0 mm 2 m/s 672 mmHg 66%
    05:00 +12°C° 0 mm 2 m/s 672 mmHg 66%
    06:00 +10°C° 0 mm 2 m/s 672 mmHg 67%
    07:00 +13°C° 0 mm 2 m/s 673 mmHg 60%
    08:00 +14°C° 0 mm 3 m/s 673 mmHg 54%
    09:00 +16°C° 0 mm 3 m/s 674 mmHg 47%
    10:00 +17°C° 0 mm 4 m/s 674 mmHg 44%
    11:00 +18°C° 0 mm 4 m/s 673 mmHg 41%
    12:00 +19°C° 0 mm 5 m/s 673 mmHg 38%
    13:00 +19°C° 0 mm 5 m/s 673 mmHg 39%
    14:00 +19°C° 0 mm 5 m/s 672 mmHg 39%
    15:00 +19°C° 0 mm 5 m/s 672 mmHg 40%
    16:00 +17°C° 0 mm 4 m/s 672 mmHg 44%
    17:00 +16°C° 0 mm 3 m/s 672 mmHg 48%
    18:00 +14°C° 0 mm 3 m/s 672 mmHg 53%
    19:00 +14°C° 0 mm 3 m/s 672 mmHg 55%
    20:00 +13°C° 0 mm 3 m/s 672 mmHg 56%
    21:00 +13°C° 0 mm 3 m/s 672 mmHg 58%
    22:00 +13°C° 0 mm 3 m/s 671 mmHg 59%
    23:00 +12°C° 0 mm 3 m/s 671 mmHg 59%

    27 Outubro, Sábado

    Tempo Temperatura Precipitação Vento Pressão Humidade
    00:00 +12°C° 0 mm 3 m/s 671 mmHg 59%
    01:00 +12°C° 0 mm 3 m/s 670 mmHg 60%
    02:00 +11°C° 0 mm 3 m/s 670 mmHg 60%
    03:00 +11°C° 0 mm 3 m/s 670 mmHg 61%
    04:00 +11°C° 0 mm 3 m/s 670 mmHg 62%
    05:00 +11°C° 0 mm 3 m/s 669 mmHg 62%
    06:00 +11°C° 0 mm 3 m/s 669 mmHg 63%
    07:00 +12°C° 0 mm 4 m/s 670 mmHg 58%
    08:00 +14°C° 0 mm 5 m/s 670 mmHg 53%
    09:00 +16°C° 0 mm 6 m/s 671 mmHg 48%
    10:00 +17°C° 0 mm 7 m/s 670 mmHg 48%
    11:00 +17°C° 0 mm 7 m/s 670 mmHg 47%
    12:00 +18°C° 0 mm 8 m/s 669 mmHg 46%
    13:00 +18°C° 0 mm 7 m/s 669 mmHg 47%
    14:00 +17°C° 0 mm 7 m/s 668 mmHg 49%
    15:00 +17°C° 0 mm 7 m/s 668 mmHg 50%
    16:00 +16°C° 0 mm 6 m/s 667 mmHg 53%
    17:00 +16°C° 0 mm 5 m/s 667 mmHg 57%
    18:00 +15°C° 0 mm 4 m/s 667 mmHg 60%
    19:00 +15°C° 0 mm 5 m/s 667 mmHg 61%
    20:00 +15°C° 0 mm 6 m/s 666 mmHg 61%
    21:00 +15°C° 0 mm 7 m/s 666 mmHg 61%
    22:00 +15°C° 0.7 mm 7 m/s 666 mmHg 64%
    23:00 +15°C° 0.7 mm 6 m/s 665 mmHg 68%

    28 Outubro, Domingo

    Tempo Temperatura Precipitação Vento Pressão Humidade
    00:00 +14°C° 0.7 mm 6 m/s 665 mmHg 71%
    01:00 +14°C° 0.8 mm 6 m/s 664 mmHg 74%
    02:00 +13°C° 0.8 mm 6 m/s 663 mmHg 76%
    03:00 +13°C° 0.8 mm 5 m/s 663 mmHg 78%
    04:00 +13°C° 0.4 mm 5 m/s 662 mmHg 79%
    05:00 +12°C° 0.4 mm 5 m/s 662 mmHg 80%
    06:00 +12°C° 0.4 mm 5 m/s 661 mmHg 80%
    07:00 +13°C° 0 mm 6 m/s 662 mmHg 74%
    08:00 +14°C° 0 mm 7 m/s 662 mmHg 68%
    09:00 +15°C° 0 mm 9 m/s 662 mmHg 62%
    10:00 +15°C° 0.3 mm 8 m/s 662 mmHg 62%
    11:00 +15°C° 0.3 mm 8 m/s 661 mmHg 62%
    12:00 +13°C° 0.3 mm 8 m/s 661 mmHg 63%
    13:00 +13°C° 0.6 mm 8 m/s 661 mmHg 65%
    14:00 +12°C° 0.6 mm 8 m/s 661 mmHg 68%
    15:00 +11°C° 0.6 mm 9 m/s 660 mmHg 70%
    16:00 +11°C° 0.1 mm 8 m/s 661 mmHg 68%
    17:00 +10°C° 0.1 mm 7 m/s 661 mmHg 67%
    18:00 +9°C° 0.1 mm 6 m/s 662 mmHg 65%
    19:00 +8°C° 0 mm 5 m/s 662 mmHg 65%
    20:00 +7°C° 0 mm 5 m/s 662 mmHg 64%
    21:00 +7°C° 0 mm 5 m/s 663 mmHg 63%
    22:00 +6°C° 0.1 mm 5 m/s 663 mmHg 65%
    23:00 +5°C° 0.1 mm 4 m/s 663 mmHg 68%

    29 Outubro, Segunda-feira

    Tempo Temperatura Precipitação Vento Pressão Humidade
    00:00 +5°C° 0.1 mm 4 m/s 663 mmHg 70%
    01:00 +4°C° 0.3 mm 4 m/s 662 mmHg 70%
    02:00 +3°C° 0.3 mm 5 m/s 662 mmHg 69%
    03:00 +2°C° 0.3 mm 5 m/s 662 mmHg 68%
    04:00 +2°C° 0 mm 5 m/s 662 mmHg 67%
    05:00 +1°C° 0 mm 6 m/s 662 mmHg 67%
    06:00 +1°C° 0 mm 6 m/s 662 mmHg 66%
    07:00 +2°C° 0 mm 7 m/s 663 mmHg 61%
    08:00 +1°C° 0 mm 8 m/s 663 mmHg 57%
    09:00 +2°C° 0 mm 8 m/s 664 mmHg 52%
    10:00 +3°C° 0 mm 9 m/s 664 mmHg 49%
    11:00 +3°C° 0 mm 9 m/s 664 mmHg 47%
    12:00 +5°C° 0 mm 10 m/s 664 mmHg 44%
    13:00 +5°C° 0 mm 10 m/s 664 mmHg 44%
    14:00 +5°C° 0 mm 10 m/s 664 mmHg 44%
    15:00 +5°C° 0 mm 10 m/s 664 mmHg 44%
    16:00 +5°C° 0 mm 10 m/s 664 mmHg 47%
    17:00 +3°C° 0 mm 9 m/s 665 mmHg 50%
    18:00 +4°C° 0 mm 8 m/s 665 mmHg 53%
    19:00 +2°C° 0 mm 8 m/s 665 mmHg 56%
    20:00 +3°C° 0 mm 7 m/s 666 mmHg 59%
    21:00 +3°C° 0 mm 6 m/s 666 mmHg 61%
    22:00 +3°C° 0 mm 6 m/s 666 mmHg 63%
    23:00 +3°C° 0 mm 6 m/s 666 mmHg 64%
    Mostrar mais